This is the latest recevied weather packets stored in our database for station/object KC9GSD. If no packets are shown the sender has not sent any weather packets the latest 10 day(s).
| Time | Temp. | Humidity | Pressure | Rain* | Wind** | Luminosity | Snow |
|---|---|---|---|---|---|---|---|
| 1777496270 | 26.11° C | 69% | 1010.8 hPa | 0 mm | - | 281 W/m² | - |
| 1777495056 | 26.67° C | 69% | 1010.9 hPa | 0 mm | - | 528 W/m² | - |
| 1777494753 | 27.22° C | 64% | 1010.9 hPa | 0 mm | - | 563 W/m² | - |
| 1777494450 | 27.78° C | 66% | 1011 hPa | 0 mm | - | 588 W/m² | - |
| 1777494146 | 27.22° C | 70% | 1011 hPa | 0 mm | - | 605 W/m² | - |
| 1777493844 | 27.22° C | 68% | 1011.2 hPa | 0 mm | - | 713 W/m² | - |
| 1777493542 | 26.67° C | 71% | 1011.2 hPa | 0 mm | - | 270 W/m² | - |
| 1777493239 | 26.67° C | 70% | 1011.2 hPa | 0 mm | - | 637 W/m² | - |
| 1777492935 | 26.67° C | 68% | 1011.3 hPa | 0 mm | - | 725 W/m² | - |
| 1777492327 | 26.67° C | 72% | 1011.7 hPa | 0 mm | - | 775 W/m² | - |
| 1777491721 | 26.67° C | 72% | 1011.9 hPa | 0 mm | - | 803 W/m² | - |
| 1777490810 | 27.22° C | 68% | 1012.1 hPa | 0 mm | - | 761 W/m² | - |
| 1777490507 | 26.67° C | 72% | 1012.3 hPa | 0 mm | - | 852 W/m² | - |
| 1777489901 | 26.11° C | 75% | 1012.5 hPa | 0 mm | - | 776 W/m² | - |
| 1777489599 | 26.67° C | 73% | 1012.5 hPa | 0 mm | - | 790 W/m² | - |
| 1777489295 | 26.11° C | 74% | 1012.5 hPa | 0 mm | - | 868 W/m² | - |
| 1777488387 | 26.11° C | 74% | 1012.9 hPa | 0 mm | - | 841 W/m² | - |
| 1777482928 | 23.33° C | 84% | 1013.2 hPa | 0 mm | - | 350 W/m² | - |
| 1777481716 | 22.78° C | 83% | 1013.4 hPa | 0 mm | - | 380 W/m² | - |
| 1777480199 | 22.22° C | 84% | 1013.5 hPa | 0 mm | - | 149 W/m² | - |
| 1777476560 | 23.89° C | 80% | 1013.5 hPa | 0 mm | - | 465 W/m² | - |
| 1777475951 | 23.89° C | 79% | 1013.4 hPa | 0 mm | - | 346 W/m² | - |
| 1777475344 | 23.33° C | 81% | 1013.8 hPa | 0 mm | - | 505 W/m² | - |
| 1777473827 | 22.78° C | 81% | 1013.9 hPa | 0 mm | - | 506 W/m² | - |
| 1777473523 | 22.78° C | 80% | 1013.8 hPa | 0 mm | - | 486 W/m² | - |
* Rain latest hour (hover to see other rain measurements)
** Current wind speed in m/s (hover to see current wind gust speed)